| time (UTC) | temp F | wind direction | speed knots | gust knots | rain 1hr in | rain 24hr in | rain mn in | humidity % | barometer mb |
| 20260507153051 | 83 | 139 | 3.5 | 13.0 | 0.00 | 0.00 | 0.00 | 80 | 1015.5 |
| 20260507151553 | 81 | 190 | 6.1 | 13.9 | 0.00 | 0.00 | 0.00 | 81 | 1015.4 |
| 20260507150055 | 81 | 209 | 5.2 | 14.8 | 0.00 | 0.00 | 0.00 | 81 | 1015.2 |
| 20260507144551 | 81 | 86 | 5.2 | 13.9 | 0.00 | 0.00 | 0.00 | 82 | 1015.1 |
| 20260507143048 | 82 | 210 | 3.5 | 12.2 | 0.00 | 0.00 | 0.00 | 82 | 1014.9 |
| 20260507141554 | 80 | 195 | 5.2 | 12.2 | 0.00 | 0.00 | 0.00 | 84 | 1015.0 |
| 20260507140106 | 80 | 285 | 5.2 | 12.2 | 0.00 | 0.00 | 0.00 | 84 | 1015.2 |
| 20260507134553 | 80 | 235 | 7.0 | 11.3 | 0.00 | 0.01 | 0.00 | 83 | 1015.2 |
| 20260507133051 | 79 | 214 | 4.3 | 10.4 | 0.00 | 0.01 | 0.00 | 86 | 1015.3 |
| 20260507131600 | 77 | 201 | 4.3 | 9.6 | 0.00 | 0.01 | 0.00 | 88 | 1015.3 |
| 20260507130100 | 78 | 188 | 2.6 | 7.0 | 0.00 | 0.01 | 0.00 | 87 | 1015.3 |
| 20260507124604 | 79 | 231 | 1.7 | 8.7 | 0.00 | 0.01 | 0.00 | 85 | 1015.1 |
| 20260507123055 | 77 | 188 | 3.5 | 7.0 | 0.00 | 0.01 | 0.00 | 88 | 1014.8 |
| 20260507121548 | 76 | 207 | 1.7 | 6.1 | 0.00 | 0.01 | 0.00 | 91 | 1014.6 |
| 20260507120051 | 75 | 186 | 0.9 | 5.2 | 0.00 | 0.01 | 0.00 | 92 | 1014.8 |
| 20260507114549 | 74 | 220 | 2.6 | 6.1 | 0.00 | 0.01 | 0.00 | 93 | 1014.4 |
| 20260507113050 | 74 | 221 | 0.9 | 5.2 | 0.00 | 0.01 | 0.00 | 93 | 1013.9 |
| 20260507111551 | 74 | 165 | 2.6 | 6.1 | 0.00 | 0.01 | 0.00 | 93 | 1013.4 |
| 20260507110052 | 74 | 171 | 2.6 | 7.0 | 0.00 | 0.01 | 0.00 | 93 | 1013.1 |
| 20260507104547 | 74 | 196 | 2.6 | 8.7 | 0.00 | 0.01 | 0.00 | 93 | 1013.1 |
| 20260507103052 | 74 | 205 | 2.6 | 7.0 | 0.00 | 0.01 | 0.00 | 93 | 1012.9 |
| 20260507101550 | 73 | 160 | 3.5 | 7.8 | 0.00 | 0.01 | 0.00 | 94 | 1012.7 |
| 20260507100051 | 73 | 161 | 4.3 | 6.1 | 0.00 | 0.01 | 0.00 | 94 | 1012.7 |
| 20260507094555 | 73 | 190 | 4.3 | 8.7 | 0.00 | 0.01 | 0.00 | 95 | 1012.8 |
| 20260507093052 | 73 | 160 | 2.6 | 6.1 | 0.00 | 0.01 | 0.00 | 95 | 1012.8 |
| 20260507091553 | 73 | 184 | 3.5 | 7.8 | 0.00 | 0.01 | 0.00 | 95 | 1012.9 |
| 20260507090049 | 73 | 212 | 4.3 | 8.7 | 0.00 | 0.01 | 0.00 | 95 | 1012.9 |
| 20260507084553 | 73 | 195 | 4.3 | 7.8 | 0.00 | 0.01 | 0.00 | 95 | 1013.1 |
| 20260507083050 | 74 | 166 | 3.5 | 7.8 | 0.00 | 0.01 | 0.00 | 95 | 1013.1 |
| 20260507081551 | 73 | 205 | 3.5 | 7.8 | 0.00 | 0.01 | 0.00 | 95 | 1013.4 |
| 20260507080116 | 73 | 172 | 3.5 | 7.8 | 0.00 | 0.01 | 0.00 | 95 | 1013.5 |
| 20260507074601 | 74 | 179 | 2.6 | 7.0 | 0.00 | 0.01 | 0.00 | 94 | 1013.4 |
| 20260507073100 | 73 | 193 | 3.5 | 9.6 | 0.00 | 0.01 | 0.00 | 95 | 1013.6 |
| 20260507071601 | 73 | 113 | 3.5 | 7.8 | 0.00 | 0.01 | 0.00 | 95 | 1013.7 |
| 20260507070051 | 73 | 146 | 4.3 | 7.8 | 0.00 | 0.01 | 0.00 | 95 | 1013.5 |
| 20260507064553 | 73 | 137 | 4.3 | 11.3 | 0.00 | 0.01 | 0.00 | 94 | 1013.7 |
| 20260507063049 | 73 | 145 | 2.6 | 7.8 | 0.00 | 0.01 | 0.00 | 94 | 1014.0 |
| 20260507061547 | 74 | 197 | 2.6 | 7.0 | 0.00 | 0.01 | 0.00 | 94 | 1014.4 |
| 20260507060050 | 74 | 161 | 2.6 | 6.1 | 0.00 | 0.01 | 0.00 | 94 | 1014.5 |
| 20260507054552 | 73 | 191 | 3.5 | 9.6 | 0.00 | 0.01 | 0.00 | 94 | 1014.5 |
| 20260507053048 | 73 | 183 | 2.6 | 8.7 | 0.00 | 0.01 | 0.00 | 94 | 1014.4 |
| 20260507051549 | 73 | 183 | 4.3 | 9.6 | 0.00 | 0.01 | 0.00 | 94 | 1014.4 |
| 20260507050047 | 73 | 174 | 3.5 | 7.8 | 0.00 | 0.01 | 0.00 | 94 | 1014.7 |
| 20260507044550 | 73 | 180 | 3.5 | 7.8 | 0.00 | 0.01 | 0.01 | 94 | 1014.7 |
| 20260507043050 | 74 | 139 | 4.3 | 12.2 | 0.00 | 0.01 | 0.01 | 94 | 1014.8 |
| 20260507041555 | 74 | 115 | 3.5 | 8.7 | 0.00 | 0.01 | 0.01 | 94 | 1014.9 |
| 20260507040100 | 74 | 115 | 3.5 | 7.8 | 0.00 | 0.01 | 0.01 | 94 | 1014.9 |
| 20260507034555 | 74 | 216 | 2.6 | 6.1 | 0.00 | 0.01 | 0.01 | 93 | 1015.5 |
| 20260507033053 | 74 | 140 | 3.5 | 7.8 | 0.00 | 0.01 | 0.01 | 93 | 1015.4 |
| 20260507031550 | 74 | 158 | 1.7 | 7.0 | 0.00 | 0.01 | 0.01 | 93 | 1015.6 |
| 20260507030053 | 73 | 138 | 2.6 | 7.0 | 0.00 | 0.01 | 0.01 | 93 | 1015.2 |
| 20260507024547 | 73 | 152 | 1.7 | 4.3 | 0.00 | 0.01 | 0.01 | 93 | 1015.3 |
| 20260507023047 | 74 | 108 | 1.7 | 3.5 | 0.00 | 0.01 | 0.01 | 92 | 1015.0 |
| 20260507021550 | 74 | 146 | 2.6 | 5.2 | 0.00 | 0.01 | 0.01 | 92 | 1014.9 |
| 20260507020101 | 74 | 155 | 2.6 | 4.3 | 0.00 | 0.01 | 0.01 | 92 | 1015.1 |
| 20260507014601 | 74 | 127 | 2.6 | 5.2 | 0.00 | 0.01 | 0.01 | 92 | 1014.7 |
| 20260507013048 | 74 | 186 | 3.5 | 5.2 | 0.00 | 0.01 | 0.01 | 91 | 1014.7 |
| 20260507011601 | 74 | 153 | 1.7 | 5.2 | 0.00 | 0.01 | 0.01 | 91 | 1015.3 |
| 20260507010050 | 74 | 139 | 2.6 | 7.8 | 0.00 | 0.01 | 0.01 | 90 | 1014.9 |
| 20260507004544 | 74 | 193 | 1.7 | 5.2 | 0.00 | 0.01 | 0.01 | 89 | 1014.9 |
| 20260507003050 | 74 | 181 | 1.7 | 7.8 | 0.00 | 0.01 | 0.01 | 88 | 1014.9 |
| 20260507001605 | 75 | 162 | 2.6 | 8.7 | 0.00 | 0.01 | 0.01 | 86 | 1014.4 |
| 20260507000058 | 75 | 145 | 2.6 | 6.1 | 0.00 | 0.01 | 0.01 | 84 | 1014.5 |
| 20260506234549 | 76 | 174 | 2.6 | 6.1 | 0.00 | 0.01 | 0.01 | 83 | 1014.2 |
| 20260506233056 | 77 | 193 | 4.3 | 7.0 | 0.00 | 0.01 | 0.01 | 81 | 1014.4 |
| 20260506231548 | 77 | 226 | 4.3 | 9.6 | 0.00 | 0.01 | 0.01 | 79 | 1014.5 |
| 20260506230054 | 78 | 179 | 3.5 | 9.6 | 0.00 | 0.01 | 0.01 | 77 | 1014.4 |
| 20260506224549 | 79 | 155 | 3.5 | 7.8 | 0.00 | 0.01 | 0.01 | 73 | 1014.5 |
| 20260506223048 | 79 | 165 | 3.5 | 9.6 | 0.00 | 0.01 | 0.01 | 72 | 1014.6 |
| 20260506221547 | 80 | 122 | 4.3 | 7.8 | 0.00 | 0.01 | 0.01 | 71 | 1014.7 |
| 20260506220058 | 80 | 157 | 5.2 | 8.7 | 0.00 | 0.01 | 0.01 | 70 | 1014.9 |
| 20260506214548 | 81 | 152 | 4.3 | 9.6 | 0.00 | 0.01 | 0.01 | 69 | 1015.2 |
| 20260506213057 | 82 | 110 | 4.3 | 8.7 | 0.00 | 0.01 | 0.01 | 67 | 1015.3 |
| 20260506211550 | 81 | 142 | 4.3 | 8.7 | 0.00 | 0.01 | 0.01 | 69 | 1015.4 |
| 20260506210057 | 82 | 161 | 3.5 | 7.8 | 0.00 | 0.01 | 0.01 | 67 | 1015.6 |
| 20260506204550 | 81 | 187 | 5.2 | 13.0 | 0.00 | 0.01 | 0.01 | 70 | 1015.7 |
| 20260506203137 | 81 | 161 | 3.5 | 9.6 | 0.00 | 0.01 | 0.01 | 70 | 1015.8 |
| 20260506201552 | 82 | 203 | 2.6 | 9.6 | 0.00 | 0.01 | 0.01 | 69 | 1016.2 |
| 20260506200052 | 83 | 241 | 3.5 | 11.3 | 0.00 | 0.01 | 0.01 | 68 | 1016.6 |
| 20260506194549 | 84 | 205 | 2.6 | 9.6 | 0.00 | 0.01 | 0.01 | 66 | 1016.8 |
| 20260506193048 | 84 | 199 | 1.7 | 9.6 | 0.00 | 0.01 | 0.01 | 66 | 1016.8 |
| 20260506191552 | 84 | 73 | 1.7 | 8.7 | 0.00 | 0.01 | 0.01 | 64 | 1017.0 |
| 20260506190050 | 84 | 158 | 3.5 | 8.7 | 0.00 | 0.01 | 0.01 | 64 | 1017.3 |
| 20260506184556 | 83 | 212 | 2.6 | 8.7 | 0.00 | 0.01 | 0.01 | 65 | 1017.4 |
| 20260506183042 | 84 | 302 | 4.3 | 9.6 | 0.00 | 0.01 | 0.01 | 63 | 1017.2 |
| 20260506181550 | 84 | 183 | 2.6 | 7.8 | 0.00 | 0.01 | 0.01 | 63 | 1017.3 |
| 20260506180054 | 83 | 141 | 3.5 | 10.4 | 0.00 | 0.01 | 0.01 | 67 | 1017.6 |
| 20260506174555 | 84 | 274 | 3.5 | 10.4 | 0.00 | 0.01 | 0.01 | 67 | 1017.6 |
| 20260506173055 | 83 | 156 | 3.5 | 9.6 | 0.00 | 0.01 | 0.01 | 68 | 1017.6 |
| 20260506171547 | 83 | 238 | 1.7 | 11.3 | 0.00 | 0.01 | 0.01 | 65 | 1017.8 |
| 20260506170048 | 83 | 200 | 4.3 | 8.7 | 0.00 | 0.01 | 0.01 | 70 | 1017.9 |
| 20260506164552 | 82 | 269 | 4.3 | 8.7 | 0.00 | 0.01 | 0.01 | 70 | 1017.6 |
| 20260506163102 | 82 | 134 | 4.3 | 10.4 | 0.00 | 0.01 | 0.01 | 72 | 1017.5 |
| 20260506161550 | 81 | 184 | 4.3 | 8.7 | 0.00 | 0.01 | 0.01 | 73 | 1017.5 |
| 20260506160051 | 81 | 184 | 5.2 | 13.0 | 0.00 | 0.01 | 0.01 | 73 | 1017.3 |
| 20260506154553 | 81 | 255 | 3.5 | 10.4 | 0.00 | 0.01 | 0.01 | 73 | 1017.4 |